Location: Maiden
(35.5760°N, 81.2120°W)
Time: 02:38:55
(UTC-04:00)

A-11 Canister half - Pass Details

Date: 05 August 2020
Orbit: 1527 x 1682 km, 47.3° (Epoch: 25 September)

Event Time Altitude Azimuth Distance (km) Brightness Sun altitude
Rises 14:26:43 0° 239° (WSW) 4,908 11.9 67.4°
Reaches altitude 10° 14:29:52 10° 241° (WSW) 3,930 11.6 67.0°
Maximum altitude 14:40:02 79° 328° (NNW) 1,710 10.6 65.6°
Drops below altitude 10° 14:50:11 10° 55° (NE) 3,918 11.0 64.1°
Sets 14:53:20 0° 57° (ENE) 4,892 11.4 63.7°
